Flag for Greenland Weather past 2 weeks in Nuuk, Greenland

Now
50 °F

Partly sunny.


Feels Like: 44 °F
Forecast: 43 / 52 °F
Wind: 18 mph from South

Location: Godthaab / Nuuk

Current Time: Aug 23, 2014 at 2:06:44 PM

Latest Report: Aug 23, 2014 at 12:50 PM


Visibility: N/A

Pressure: 29.86 "Hg

Humidity: 82%

Dew point: 45 °F

Location of NuukLocation

Historic Weather in Nuuk — Graph

°F

Nuuk temperature yesterday

Maximum temperature yesterday: 48 °F (at 12:50 AM)
Minimum temperature yesterday: 45 °F (at 2:50 AM)
Average temperature yesterday: 46 °F

Past Weeks' High & Low Weather Summary

 TemperatureHumidityPressure
High66 °F (Aug 16, 2:50 PM)100% (Aug 10, 4:50 AM)30.30 "Hg (Aug 10, 4:50 AM)
Low41 °F (Aug 15, 12:50 AM)35% (Aug 16, 2:50 PM)29.74 "Hg (Aug 14, 11:50 AM)
Average49 °F87%30.11 "Hg
* Reported Aug 8 12:50 PM — Aug 23 12:50 PM, Nuuk, Weather by CustomWeather, © 2014

Note: Actual official high and low records may vary slightly from our data, if they occured in-between our weather recording intervals... More about our weather records

Advertising

Nuuk weather history for previous 24 hours

 ConditionsComfort  
Time TempWeatherWind HumidityBarometerVisibility
12:50 PM
Aug 23
50 °FPartly sunny.18 mph82%29.86 "HgN/A
11:50 AM50 °FBroken clouds.16 mph82%29.86 "HgN/A
10:50 AM48 °FPartly sunny.8 mph87%29.89 "HgN/A
9:50 AM46 °FBroken clouds.8 mph93%29.92 "HgN/A
8:50 AM45 °FFog.No wind100%29.95 "Hg1 mi
7:50 AM43 °FPartly sunny.5 mph100%29.95 "Hg2 mi
6:50 AM43 °FDrizzle. Fog.7 mph100%29.98 "Hg0 mi
5:50 AM43 °FFog.3 mph100%29.98 "Hg0 mi
4:50 AM43 °FQuite cool.2 mph100%30.01 "HgN/A
3:50 AM43 °FPassing clouds.2 mph93%30.01 "HgN/A
2:50 AM43 °FQuite cool.2 mph93%30.04 "HgN/A
1:50 AM43 °FQuite cool.3 mph93%30.04 "HgN/A
12:50 AM43 °FQuite cool.3 mph93%30.07 "HgN/A
11:50 PM
Aug 22
45 °FQuite cool.3 mph87%30.07 "HgN/A
10:50 PM45 °FQuite cool.1 mph87%30.07 "HgN/A
9:50 PM45 °FQuite cool.6 mph93%30.07 "HgN/A
8:50 PM46 °FPartly sunny.6 mph87%30.09 "HgN/A
7:50 PM46 °FBroken clouds.5 mph87%30.09 "HgN/A
6:50 PM48 °FBroken clouds.5 mph87%30.09 "HgN/A
5:50 PM46 °FPartly sunny.6 mph93%30.09 "HgN/A
4:50 PM48 °FPartly sunny.6 mph87%30.09 "HgN/A
3:50 PM48 °FPartly sunny.5 mph94%30.09 "HgN/A
2:50 PM48 °FLow clouds.7 mph94%30.07 "HgN/A
Weather by CustomWeather, © 2014

See weather overviewHow to use our weather pages